Regional Weather Roundup
Issued by NWS State College, PA

Home | Current Version | Previous Version | Text Only | Print | Product List | Glossary On
Versions: 1 2 3 4 5 6 7 8 9 10 11 12 13 14 15 16 17 18 19 20 21 22 23 24 25 26 27 28 29 30 31 32 33 34 35 36 37 38 39 40 41 42 43 44 45 46 47 48 49 50
000
ASUS41 KCTP 120310
RWRCTP

REGIONAL WEATHER ROUNDUP
NATIONAL WEATHER SERVICE STATE COLLEGE PA
1000 PM EST MON DEC 11 2017

Note: "fair" indicates few or no clouds below 12,000 feet with no
significant weather and/or obstructions to visibility.

* = STATION THAT DOES NOT REPORT PRECIPITATION /E.G. RAIN...SNOW...ETC/
    THUNDER OR FOG.

PAZ002>004-007>009-013>016-020>023-029>032-120400-
WESTERN PENNSYLVANIA

CITY           SKY/WX    TMP DP  RH WIND       PRES   REMARKS
ERIE           CLOUDY    30  27  88 SE6       29.72F
MEADVILLE      CLOUDY    29  24  82 CALM      29.69F
FRANKLIN*      CLOUDY    31  22  69 SE10      29.69F
NEW CASTLE     MOCLDY    32  22  66 VRB3      29.71F
BEAVER COUNTY  NOT AVBL
BUTLER*        CLOUDY    34  22  61 S5        29.72F
PITTSBURGH INT CLOUDY    36  22  56 CALM      29.71F
PITTSBURGH     CLOUDY    33  20  58 SE6       29.70F
INDIANA*       CLOUDY    37  23  56 S7G13     29.77F
LATROBE        PTCLDY    30  25  80 CALM      29.74F
WASHINGTON CO* CLOUDY    30  23  75 CALM      29.73F
$$

PAZ004>006-010>012-017>019-024>028-033>037-041-042-045-046-049>053-120400-
CENTRAL PENNSYLVANIA

CITY           SKY/WX    TMP DP  RH WIND       PRES   REMARKS
BRADFORD       CLOUDY    29  21  72 SE5       29.69F
DUBOIS         CLOUDY    32  20  61 SE7       29.71F
CLEARFIELD     CLOUDY    31  21  66 NE6       29.74F
JOHNSTOWN      CLOUDY    34  21  59 SE10      29.71F
ALTOONA        CLOUDY    35  25  66 CALM      29.78F
STATE COLLEGE  CLOUDY    32  21  64 CALM      29.80F
WILLIAMSPORT   CLOUDY    37  22  54 SE15      29.83F
SELINSGROVE    CLOUDY    37  25  61 SE7       29.87F
FT INDIANTOWN  CLOUDY    33  25  72 NE5       29.90F
CAPITAL CITY   CLOUDY    36  25  64 SE10      29.88F
HARRISBURG     CLOUDY    34  26  72 SE9       29.89F
YORK           PTCLDY    34  28  79 SE5       29.88F
$$

PAZ038>040-043-044-047-048-054-055-060>062-067>071-120400-
EASTERN PENNSYLVANIA

CITY           SKY/WX    TMP DP  RH WIND       PRES   REMARKS
SCRANTON       CLOUDY    34  21  59 VRB3      29.87F
MOUNT POCONO   CLOUDY    27  19  72 E7        29.85F
ALLENTOWN      CLOUDY    37  21  52 E5        29.94F
QUAKERTOWN*    MOCLDY    32  23  69 CALM      29.95F
READING        PTCLDY    36  25  64 SE9       29.92F
LANCASTER      PTCLDY    33  27  78 E8        29.91F
COATESVILLE    CLOUDY    34  25  69 SE5       29.93F
POTTSTOWN      CLOUDY    31  23  72 E3        29.96F
BLUE BELL      CLOUDY    34  27  75 CALM      29.97F
DOYLESTOWN     CLOUDY    34  22  61 VRB5      29.95F
WILLOW GROVE   NOT AVBL
NORTH PHILA    CLOUDY    37  26  64 SE5       29.98F
PHILADELPHIA   CLOUDY    36  24  62 SE7       29.98F
$$



USA.gov is the U.S. government's official web portal to all federal, state and local government web resources and services.